Вернуться в каталог

SL-16 DEB

АктивенLEO
NORAD 22804·DEBRIS·🇷🇺 Russia

Запущен Sep 16, 1993 с Baikonur Cosmodrome

Loading…

Ближайшие Пролёты (ближайшие 24 часа)

TLE

СвежийSource: Space-Track

Эпоха: Sep 14, 2026, 06:39 UTC

1 22804U 93059C   26257.27776468  .00000085  00000-0  12054-3 0  9999
2 22804  70.9767  10.3005 0208951  13.6170  10.5416 13.72085941651005

Отслеживайте SL-16 DEB в реальном времени с AllMySat

Download on the App Store